AirNav   ProFlight Series 2 Aviation Headset
 
 475 users online  

MO92 SSM Health Depaul Hospital-St Louis Heliport
Bridgeton, Missouri, USA

GOING TO BRIDGETON?


FAA INFORMATION EFFECTIVE 16 JULY 2020

Location

FAA Identifier: MO92
Lat/Long: 38-45-07.8100N 090-25-56.6400W
38-45.130167N 090-25.944000W
38.7521694,-90.4324000
(estimated)
Elevation: 543 ft. / 166 m (estimated)
Variation: 02E (1985)
Time zone: UTC -5 (UTC -6 during Standard Time)
Zip code: 63044

Heliport Operations

Heliport use: Private use, MEDICAL.
Activation date: 07/1977
Control tower: no
ARTCC: KANSAS CITY CENTER
FSS: SAINT LOUIS FLIGHT SERVICE STATION
Attendance: UNATNDD
Wind indicator: yes
Segmented circle: no
Lights: FOR HELIPAD LGTS CALL 314-344-7055.

Heliport Communications

WX ASOS at STL (2.9 nm E): 125.025 (314-890-4790)
WX ASOS at SET (11 nm N): 118.075 (636-250-4590)
WX ASOS at SUS (12 nm SW): 134.8 (314-890-7255)
WX ASOS at CPS (17 nm SE): PHONE 618-332-0001
WX AWOS-3 at ALN (20 nm NE): 128.0 (618-259-7231)

Nearby radio navigation aids

VOR radial/distance  VOR name  Freq  Var
STLr159/6.9ST LOUIS VORTAC117.4001E
TOYr268/24.1TROY VORTAC116.0004E
FTZr077/25.5FORISTELL VORTAC110.8005E

 
NDB name  Hdg/Dist  Freq  Var  ID
EAVES051/7.022701WFZ ..-. --..
CIVIC MEMORIAL245/19.526301WCVM -.-. ...- --

Heliport Services

Runway Information

Helipad H1

Dimensions: 60 x 60 ft. / 18 x 18 m
FATO 90 FT X 90 FT.
Surface: asphalt
Runway edge lights: PERI
YELLOW LGTS AT FATO EDGE AND WHITE LGTS AT TLOF EDGE.
Latitude: 38-45.130167N
Longitude: 090-25.944000W
Elevation: 543.0 ft.
Traffic pattern: leftleft
Obstructions: 50 ft. pole

Heliport Ownership and Management from official FAA records

Ownership: Privately-owned
Owner: SSM HEALTH ST. LOUIS
12303 DEPAUL DRIVE
ST. LOUIS, MO 63044
Phone (314) 989-2532
Manager: SAMANTHA BLEY
1015 CORPORATE SQ DR., SUITE 110
ST. LOUIS, MO 63132
Phone (314) 989-2532
ADDITIONAL CONTACT: LESLIE THORNBURG 314-989-6134 LESLIE.THORNBURG@SSMHEALTH.COM

Additional Remarks

FOR CD CTC ST LOUIS APCH AT 314-890-1018.

Instrument Procedures

There are no published instrument procedures at MO92.

Some nearby airports with instrument procedures:

KSTL - St Louis Lambert International Airport (3 nm E)
1H0 - Creve Coeur Airport (4 nm SW)
KSET - St Charles County Smartt Airport (11 nm N)
KSUS - Spirit of St Louis Airport (12 nm SW)
KCPS - St Louis Downtown Airport (17 nm SE)
KALN - St Louis Regional Airport (20 nm NE)
 
Loc | Ops | Rwys | IFR | FBO | Links
Com | Nav | Svcs | Stats | Notes
Area around MO92 (SSM Health Depaul Hospital-St Louis Heliport)
 
Road maps at: MapQuest Bing Google
 
Aerial photo
No photo
 
Sectional chart

 
Airport distance calculator
Flying to SSM Health Depaul Hospital-St Louis Heliport? Find the distance to fly.

From to MO92

Sunrise and sunset
Times for 08-Aug-2020
 Local
(UTC-5)
 Zulu
(UTC)
Morning civil twilight05:4210:42
Sunrise06:1111:11
Sunset20:0301:03
Evening civil twilight20:3201:32

Current date and time
Zulu (UTC)  08-Aug-2020 10:50:39
Local (UTC-5)  08-Aug-2020 05:50:39
 
METAR
KSTL 
3nm E 
080951Z 14006KT 10SM FEW250 22/18 A3010 RMK AO2 SLP181 T02220178
KSET 
11nm N 
080954Z AUTO 08004KT 10SM CLR 19/17 A3009 RMK AO2 SLP184 T01940172
KSUS 
12nm SW 
080954Z AUTO 08004KT 10SM CLR 19/18 A3008 RMK AO2 SLP179 T01890178
KCPS 
17nm SE 
080953Z AUTO 15004KT 10SM CLR 19/18 A3010 RMK AO2 SLP190 T01940183
TAF
KSTL 
3nm E 
080916Z 0809/0912 14006KT P6SM FEW250 FM081800 20008KT P6SM BKN250 FM090000 18010KT P6SM VCSH BKN250
KSUS 
12nm SW 
080539Z 0806/0906 14005KT P6SM FEW250 FM081800 20008KT P6SM BKN250 FM090000 18010KT P6SM VCSH BKN250
KCPS 
17nm SE 
080539Z 0806/0906 14006KT P6SM FEW250 FM081800 20008KT P6SM BKN250 FM090000 18010KT P6SM VCSH BKN250
NOTAMs
Click for the latest NOTAMs
NOTAMs are issued by the DoD/FAA and will open in a separate window not controlled by AirNav.

 

 
 

Would you like to see your business listed on this page?

 If your business provides an interesting product or service to pilots, flight crews, aircraft, or users of the SSM Health Depaul Hospital-St Louis Heliport, you should consider listing it here.  To start the listing process, click on the button below
 
Add a business
 

Other Pages about SSM Health Depaul Hospital-St Louis Heliport

Update a link
 
Copyright © AirNav, LLC. All rights reserved. Privacy Policy  Contact